| time (UTC) | temp F | wind direction | speed knots | gust knots | rain 1hr in | rain 24hr in | rain mn in | humidity % | barometer mb |
| 20260503192436 | 51 | 294 | 5.2 | 7.0 | 0.00 | 0.00 | 0.00 | 36 | 1017.2 |
| 20260503191842 | 50 | 210 | 4.3 | 6.1 | 0.00 | 0.00 | 0.00 | 39 | 1017.6 |
| 20260503191249 | 51 | 281 | 5.2 | 7.8 | 0.00 | 0.00 | 0.00 | 34 | 1017.2 |
| 20260503190636 | 51 | 272 | 2.6 | 3.5 | 0.00 | 0.00 | 0.00 | 39 | 1017.2 |
| 20260503190052 | 51 | 241 | 5.2 | 7.0 | 0.00 | 0.00 | 0.00 | 42 | 1017.2 |
| 20260503185423 | 50 | 127 | 2.6 | 2.6 | 0.00 | 0.00 | 0.00 | 40 | 1017.6 |
| 20260503184846 | 50 | 298 | 2.6 | 3.5 | 0.00 | 0.00 | 0.00 | 41 | 1017.2 |
| 20260503184216 | 49 | 268 | 4.3 | 7.0 | 0.00 | 0.00 | 0.00 | 41 | 1017.6 |
| 20260503183031 | 50 | 222 | 2.6 | 3.5 | 0.00 | 0.00 | 0.00 | 40 | 1017.2 |
| 20260503182446 | 49 | 275 | 3.5 | 5.2 | 0.00 | 0.00 | 0.00 | 38 | 1017.6 |
| 20260503181853 | 50 | 231 | 5.2 | 7.0 | 0.00 | 0.00 | 0.00 | 38 | 1017.6 |
| 20260503181236 | 50 | 236 | 1.7 | 1.7 | 0.00 | 0.00 | 0.00 | 37 | 1017.9 |
| 20260503180651 | 49 | 306 | 3.5 | 5.2 | 0.00 | 0.00 | 0.00 | 38 | 1017.9 |
| 20260503180027 | 48 | 318 | 3.5 | 3.5 | 0.00 | 0.00 | 0.00 | 41 | 1017.6 |
| 20260503175417 | 50 | 298 | 3.5 | 5.2 | 0.00 | 0.00 | 0.00 | 38 | 1017.9 |
| 20260503174820 | 49 | 181 | 1.7 | 1.7 | 0.00 | 0.00 | 0.00 | 44 | 1017.6 |
| 20260503174213 | 48 | 194 | 2.6 | 3.5 | 0.00 | 0.00 | 0.00 | 43 | 1017.6 |
| 20260503173628 | 48 | 271 | 4.3 | 6.1 | 0.00 | 0.00 | 0.00 | 49 | 1017.6 |
| 20260503173035 | 48 | 300 | 3.5 | 6.1 | 0.00 | 0.00 | 0.00 | 44 | 1017.9 |
| 20260503172413 | 48 | 242 | 6.1 | 7.8 | 0.00 | 0.00 | 0.00 | 43 | 1017.9 |
| 20260503171814 | 48 | 216 | 1.7 | 1.7 | 0.00 | 0.00 | 0.00 | 39 | 1017.9 |
| 20260503171254 | 47 | 221 | 0.9 | 0.9 | 0.00 | 0.00 | 0.00 | 45 | 1017.9 |
| 20260503150630 | 41 | 259 | 2.6 | 3.5 | 0.00 | 0.00 | 0.00 | 51 | 1018.9 |
| 20260503130620 | 36 | 257 | 5.2 | 6.1 | 0.00 | 0.00 | 0.00 | 74 | 1018.6 |
| 20260503110645 | 32 | 219 | 0.9 | 1.7 | 0.00 | 0.00 | 0.00 | 84 | 1017.6 |
| 20260503081246 | 33 | 237 | 0.0 | 0.9 | 0.00 | 0.00 | 0.00 | 82 | 1015.9 |
| 20260503072411 | 33 | 245 | 0.0 | 0.0 | 0.00 | 0.00 | 0.00 | 82 | 1015.2 |
| 20260503071838 | 33 | 228 | 0.9 | 1.7 | 0.00 | 0.00 | 0.00 | 82 | 1015.5 |
| 20260503071227 | 33 | 208 | 0.9 | 0.9 | 0.00 | 0.00 | 0.00 | 82 | 1015.2 |
| 20260503070623 | 33 | 218 | 1.7 | 1.7 | 0.00 | 0.00 | 0.00 | 82 | 1015.2 |
| 20260503054237 | 33 | 201 | 0.9 | 0.9 | 0.00 | 0.00 | 0.00 | 81 | 1015.5 |
| 20260503053623 | 33 | 234 | 0.0 | 0.0 | 0.00 | 0.00 | 0.00 | 82 | 1015.5 |
| 20260503053051 | 33 | 206 | 0.0 | 0.0 | 0.00 | 0.00 | 0.00 | 81 | 1015.2 |
| 20260503052424 | 33 | 243 | 0.0 | 0.0 | 0.00 | 0.00 | 0.00 | 80 | 1015.2 |
| 20260503051854 | 34 | 206 | 0.0 | 0.9 | 0.00 | 0.00 | 0.00 | 78 | 1015.2 |
| 20260503051244 | 34 | 198 | 0.0 | 0.9 | 0.00 | 0.00 | 0.00 | 77 | 1015.2 |
| 20260503050649 | 34 | 83 | 2.6 | 2.6 | 0.00 | 0.00 | 0.00 | 77 | 1015.2 |
| 20260503050053 | 34 | 303 | 0.9 | 0.9 | 0.00 | 0.00 | 0.00 | 78 | 1015.2 |
| 20260503045418 | 35 | 131 | 0.9 | 1.7 | 0.00 | 0.00 | 0.00 | 78 | 1015.5 |
| 20260503044845 | 35 | 138 | 2.6 | 3.5 | 0.00 | 0.00 | 0.00 | 78 | 1015.5 |
| 20260503044242 | 35 | 136 | 1.7 | 2.6 | 0.00 | 0.00 | 0.00 | 78 | 1015.5 |
| 20260503043639 | 35 | 221 | 0.0 | 0.9 | 0.00 | 0.00 | 0.00 | 78 | 1015.5 |
| 20260503043016 | 35 | 55 | 1.7 | 1.7 | 0.00 | 0.00 | 0.00 | 78 | 1015.5 |
| 20260503042443 | 35 | 225 | 0.0 | 0.0 | 0.00 | 0.00 | 0.00 | 78 | 1015.5 |
| 20260503041823 | 36 | 266 | 0.9 | 0.9 | 0.00 | 0.00 | 0.00 | 78 | 1015.5 |
| 20260503040623 | 36 | 164 | 0.9 | 1.7 | 0.00 | 0.00 | 0.00 | 79 | 1015.5 |
| 20260503040047 | 36 | 156 | 1.7 | 2.6 | 0.00 | 0.00 | 0.00 | 78 | 1015.5 |
| 20260503035451 | 36 | 235 | 0.0 | 0.0 | 0.00 | 0.00 | 0.00 | 78 | 1015.5 |
| 20260503034851 | 36 | 53 | 2.6 | 2.6 | 0.00 | 0.00 | 0.00 | 78 | 1015.2 |
| 20260503034216 | 36 | 177 | 0.9 | 1.7 | 0.00 | 0.00 | 0.00 | 79 | 1015.5 |
| 20260503033638 | 36 | 229 | 0.9 | 0.9 | 0.00 | 0.00 | 0.00 | 79 | 1015.5 |
| 20260503032419 | 36 | 118 | 0.9 | 0.9 | 0.00 | 0.00 | 0.00 | 79 | 1015.5 |
| 20260503031839 | 36 | 303 | 1.7 | 1.7 | 0.00 | 0.00 | 0.00 | 78 | 1015.5 |
| 20260503031244 | 37 | 73 | 0.9 | 1.7 | 0.00 | 0.00 | 0.00 | 77 | 1015.5 |
| 20260503030642 | 37 | 82 | 1.7 | 2.6 | 0.00 | 0.00 | 0.00 | 75 | 1015.5 |
| 20260503030024 | 37 | 180 | 0.9 | 0.9 | 0.00 | 0.00 | 0.00 | 74 | 1015.2 |
| 20260503025424 | 37 | 223 | 0.0 | 0.0 | 0.00 | 0.00 | 0.00 | 72 | 1015.5 |
| 20260503024829 | 37 | 213 | 0.0 | 0.9 | 0.00 | 0.00 | 0.00 | 72 | 1015.5 |
| 20260503024233 | 37 | 222 | 0.0 | 0.0 | 0.00 | 0.00 | 0.00 | 73 | 1015.5 |
| 20260503023618 | 37 | 186 | 0.9 | 0.9 | 0.00 | 0.00 | 0.00 | 71 | 1015.5 |
| 20260503023036 | 37 | 139 | 1.7 | 2.6 | 0.00 | 0.00 | 0.00 | 70 | 1015.5 |
| 20260503022452 | 37 | 144 | 2.6 | 2.6 | 0.00 | 0.00 | 0.00 | 70 | 1015.2 |
| 20260503021852 | 37 | 290 | 0.0 | 0.9 | 0.00 | 0.00 | 0.00 | 71 | 1015.9 |
| 20260503021241 | 37 | 142 | 2.6 | 2.6 | 0.00 | 0.00 | 0.00 | 72 | 1015.5 |
| 20260503020644 | 37 | 131 | 1.7 | 1.7 | 0.00 | 0.00 | 0.00 | 71 | 1015.2 |
| 20260503020048 | 38 | 165 | 0.9 | 0.9 | 0.00 | 0.00 | 0.00 | 69 | 1015.5 |
| 20260503014817 | 38 | 76 | 3.5 | 3.5 | 0.00 | 0.00 | 0.00 | 69 | 1015.5 |
| 20260503014252 | 38 | 107 | 1.7 | 3.5 | 0.00 | 0.00 | 0.00 | 68 | 1015.5 |
| 20260503013627 | 38 | 76 | 2.6 | 2.6 | 0.00 | 0.00 | 0.00 | 67 | 1015.5 |
| 20260503013014 | 38 | 124 | 1.7 | 1.7 | 0.00 | 0.00 | 0.00 | 68 | 1015.5 |
| 20260503011811 | 38 | 83 | 2.6 | 2.6 | 0.00 | 0.00 | 0.00 | 67 | 1015.5 |
| 20260503011231 | 39 | 210 | 0.0 | 0.0 | 0.00 | 0.00 | 0.00 | 64 | 1014.9 |
| 20260503010623 | 39 | 336 | 0.9 | 1.7 | 0.00 | 0.00 | 0.00 | 63 | 1015.2 |
| 20260503010028 | 38 | 203 | 0.9 | 0.9 | 0.00 | 0.00 | 0.00 | 64 | 1015.2 |
| 20260503005414 | 39 | 175 | 0.9 | 0.9 | 0.00 | 0.00 | 0.00 | 63 | 1014.9 |
| 20260503004843 | 39 | 20 | 0.9 | 0.9 | 0.00 | 0.00 | 0.00 | 60 | 1014.9 |
| 20260503004211 | 40 | 162 | 0.9 | 0.9 | 0.00 | 0.00 | 0.00 | 57 | 1014.9 |
| 20260503003641 | 40 | 78 | 2.6 | 3.5 | 0.00 | 0.00 | 0.00 | 58 | 1014.9 |
| 20260503003018 | 40 | 85 | 5.2 | 6.1 | 0.00 | 0.00 | 0.00 | 56 | 1014.9 |
| 20260503001815 | 41 | 245 | 0.9 | 0.9 | 0.00 | 0.00 | 0.00 | 52 | 1014.9 |
| 20260503001232 | 41 | 201 | 2.6 | 3.5 | 0.00 | 0.00 | 0.00 | 51 | 1014.5 |
| 20260503000048 | 42 | 230 | 1.7 | 1.7 | 0.00 | 0.00 | 0.00 | 50 | 1014.2 |
| 20260502235410 | 42 | 255 | 1.7 | 2.6 | 0.00 | 0.00 | 0.00 | 51 | 1014.2 |
| 20260502234841 | 42 | 247 | 0.9 | 0.9 | 0.00 | 0.00 | 0.00 | 49 | 1014.2 |
| 20260502234245 | 42 | 207 | 3.5 | 3.5 | 0.00 | 0.00 | 0.00 | 50 | 1014.2 |
| 20260502233641 | 42 | 235 | 7.0 | 7.8 | 0.00 | 0.00 | 0.00 | 50 | 1014.2 |
| 20260502232429 | 42 | 222 | 1.7 | 1.7 | 0.00 | 0.00 | 0.00 | 50 | 1014.2 |
| 20260502231840 | 42 | 237 | 3.5 | 3.5 | 0.00 | 0.00 | 0.00 | 50 | 1014.2 |
| 20260502231212 | 42 | 208 | 3.5 | 5.2 | 0.00 | 0.00 | 0.00 | 48 | 1013.8 |
| 20260502230630 | 42 | 234 | 1.7 | 1.7 | 0.00 | 0.00 | 0.00 | 50 | 1014.2 |
| 20260502230040 | 43 | 231 | 3.5 | 3.5 | 0.00 | 0.00 | 0.00 | 48 | 1013.8 |
| 20260502225434 | 43 | 251 | 3.5 | 3.5 | 0.00 | 0.00 | 0.00 | 48 | 1014.2 |
| 20260502224832 | 43 | 214 | 3.5 | 3.5 | 0.00 | 0.00 | 0.00 | 48 | 1013.8 |
| 20260502224226 | 43 | 260 | 3.5 | 5.2 | 0.00 | 0.00 | 0.00 | 47 | 1013.8 |
| 20260502223035 | 44 | 221 | 4.3 | 7.0 | 0.00 | 0.00 | 0.00 | 48 | 1013.8 |
| 20260502222421 | 43 | 255 | 0.9 | 1.7 | 0.00 | 0.00 | 0.00 | 49 | 1013.8 |
| 20260502221839 | 43 | 264 | 3.5 | 5.2 | 0.00 | 0.00 | 0.00 | 48 | 1013.8 |
| 20260502221254 | 43 | 202 | 3.5 | 3.5 | 0.00 | 0.00 | 0.00 | 47 | 1013.8 |
| 20260502220621 | 43 | 240 | 2.6 | 2.6 | 0.00 | 0.00 | 0.00 | 47 | 1013.8 |
| 20260502220030 | 43 | 230 | 2.6 | 2.6 | 0.00 | 0.00 | 0.00 | 46 | 1013.8 |
| 20260502215411 | 44 | 273 | 2.6 | 2.6 | 0.00 | 0.00 | 0.00 | 46 | 1013.8 |
| 20260502214822 | 44 | 236 | 3.5 | 5.2 | 0.00 | 0.00 | 0.00 | 44 | 1013.8 |
| 20260502213651 | 44 | 220 | 3.5 | 5.2 | 0.00 | 0.00 | 0.00 | 46 | 1013.8 |
| 20260502213041 | 44 | 292 | 2.6 | 2.6 | 0.00 | 0.00 | 0.00 | 46 | 1013.8 |
| 20260502212448 | 44 | 231 | 4.3 | 5.2 | 0.00 | 0.00 | 0.00 | 44 | 1013.8 |
| 20260502211814 | 44 | 230 | 3.5 | 5.2 | 0.00 | 0.00 | 0.00 | 45 | 1013.8 |
| 20260502211238 | 44 | 220 | 1.7 | 1.7 | 0.00 | 0.00 | 0.00 | 46 | 1013.5 |
| 20260502210627 | 45 | 261 | 3.5 | 6.1 | 0.00 | 0.00 | 0.00 | 43 | 1013.5 |
| 20260502210034 | 45 | 210 | 0.9 | 0.9 | 0.00 | 0.00 | 0.00 | 44 | 1013.8 |
| 20260502205414 | 45 | 233 | 3.5 | 3.5 | 0.00 | 0.00 | 0.00 | 45 | 1013.5 |
| 20260502204235 | 44 | 226 | 4.3 | 6.1 | 0.00 | 0.00 | 0.00 | 44 | 1014.2 |
| 20260502203612 | 45 | 260 | 4.3 | 5.2 | 0.00 | 0.00 | 0.00 | 43 | 1013.8 |
| 20260502203052 | 45 | 210 | 2.6 | 3.5 | 0.00 | 0.00 | 0.00 | 45 | 1013.8 |
| 20260502202443 | 45 | 346 | 1.7 | 1.7 | 0.00 | 0.00 | 0.00 | 43 | 1013.8 |
| 20260502201845 | 44 | 250 | 3.5 | 3.5 | 0.00 | 0.00 | 0.00 | 43 | 1013.8 |
| 20260502201211 | 45 | 197 | 3.5 | 3.5 | 0.00 | 0.00 | 0.00 | 45 | 1013.8 |
| 20260502200650 | 44 | 222 | 3.5 | 3.5 | 0.00 | 0.00 | 0.00 | 46 | 1013.8 |
| 20260502200039 | 44 | 264 | 6.1 | 7.0 | 0.00 | 0.00 | 0.00 | 47 | 1013.8 |
| 20260502195414 | 44 | 225 | 5.2 | 7.0 | 0.00 | 0.00 | 0.00 | 45 | 1013.8 |
| 20260502194838 | 44 | 230 | 1.7 | 1.7 | 0.00 | 0.00 | 0.00 | 44 | 1014.2 |
| 20260502194248 | 45 | 220 | 5.2 | 6.1 | 0.00 | 0.00 | 0.00 | 46 | 1013.8 |
| 20260502193634 | 45 | 241 | 1.7 | 1.7 | 0.00 | 0.00 | 0.00 | 46 | 1014.2 |
| 20260502193038 | 45 | 248 | 2.6 | 2.6 | 0.00 | 0.00 | 0.00 | 46 | 1014.2 |